Location: Bittelbronn
(48.4454°N, 8.5870°E)
Time: 19:15:55
(UTC+00:00)

Cosmos 1703 - Pass Details

Date: 23 May 2024
Orbit: 485 x 499 km, 82.5° (Epoch: 23 June)

Event Time Altitude Azimuth Distance (km) Brightness Sun altitude
Exits shadow 02:01:34 16° 187° (S) 1,383 4.9 -12.3°
Maximum altitude 02:04:31 87° 103° (ESE) 508 3.1 -12.0°
Drops below altitude 10° 02:08:17 10° 10° (N) 1,715 6.9 -11.6°
Sets 02:10:25 0° 10° (N) 2,601 7.9 -11.4°
